| time (UTC) | temp C | wind direction | speed KPH | gust KPH | rain 1hr cm | rain 24hr cm | rain mn cm | humidity % | barometer mb |
| 20260510084856 | 16 | 340 | 14.5 | 0.0 | 0.00 | 0.00 | 0.00 | 88 | 1015.0 |
| 20260510083359 | 16 | 340 | 14.5 | 0.0 | 0.00 | 0.00 | 0.00 | 88 | 1015.0 |
| 20260510081859 | 16 | 340 | 14.5 | 0.0 | 0.00 | 0.00 | 0.00 | 88 | 1015.0 |
| 20260510080359 | 16 | 340 | 14.5 | 0.0 | 0.00 | 0.00 | 0.00 | 88 | 1015.0 |
| 20260510074859 | 16 | 340 | 11.3 | 0.0 | 0.00 | 0.00 | 0.00 | 88 | 1015.0 |
| 20260510073409 | 16 | 340 | 11.3 | 0.0 | 0.00 | 0.00 | 0.00 | 88 | 1015.0 |
| 20260510071855 | 16 | 340 | 11.3 | 0.0 | 0.00 | 0.00 | 0.00 | 88 | 1015.0 |
| 20260510070401 | 16 | 340 | 11.3 | 0.0 | 0.00 | 0.00 | 0.00 | 88 | 1015.0 |
| 20260510064855 | 15 | 310 | 11.3 | 0.0 | 0.00 | 0.00 | 0.00 | 94 | 1015.0 |
| 20260510063359 | 15 | 310 | 11.3 | 0.0 | 0.00 | 0.00 | 0.00 | 94 | 1015.0 |
| 20260510061856 | 15 | 310 | 11.3 | 0.0 | 0.00 | 0.00 | 0.00 | 94 | 1015.0 |
| 20260510060359 | 15 | 310 | 11.3 | 0.0 | 0.00 | 0.00 | 0.00 | 94 | 1015.0 |
| 20260510054856 | 12 | 3.2 | 0.0 | 0.00 | 0.00 | 0.00 | 100 | 1015.0 | |
| 20260510053407 | 12 | 3.2 | 0.0 | 0.00 | 0.00 | 0.00 | 100 | 1015.0 | |
| 20260510051859 | 12 | 3.2 | 0.0 | 0.00 | 0.00 | 0.00 | 100 | 1015.0 | |
| 20260510050359 | 12 | 3.2 | 0.0 | 0.00 | 0.00 | 0.00 | 100 | 1015.0 | |
| 20260510044857 | 12 | 3.2 | 0.0 | 0.00 | 0.00 | 0.00 | 100 | 1014.0 | |
| 20260510043359 | 12 | 3.2 | 0.0 | 0.00 | 0.00 | 0.00 | 100 | 1014.0 | |
| 20260510041859 | 12 | 3.2 | 0.0 | 0.00 | 0.00 | 0.00 | 100 | 1014.0 | |
| 20260510040359 | 12 | 3.2 | 0.0 | 0.00 | 0.00 | 0.00 | 100 | 1014.0 | |
| 20260510034853 | 12 | 3.2 | 0.0 | 0.00 | 0.00 | 0.00 | 100 | 1014.0 | |
| 20260510033405 | 12 | 3.2 | 0.0 | 0.00 | 0.00 | 0.00 | 100 | 1014.0 | |
| 20260510031857 | 12 | 3.2 | 0.0 | 0.00 | 0.00 | 0.00 | 100 | 1014.0 | |
| 20260510030400 | 12 | 3.2 | 0.0 | 0.00 | 0.00 | 0.00 | 100 | 1014.0 | |
| 20260510024854 | 12 | 100 | 4.8 | 0.0 | 0.00 | 0.00 | 0.00 | 100 | 1014.0 |
| 20260510023401 | 12 | 100 | 4.8 | 0.0 | 0.00 | 0.00 | 0.00 | 100 | 1014.0 |
| 20260510021853 | 12 | 100 | 4.8 | 0.0 | 0.00 | 0.00 | 0.00 | 100 | 1014.0 |
| 20260510020359 | 12 | 100 | 4.8 | 0.0 | 0.00 | 0.00 | 0.00 | 100 | 1014.0 |
| 20260510014857 | 12 | 100 | 4.8 | 0.0 | 0.00 | 0.00 | 0.00 | 100 | 1014.0 |
| 20260510013359 | -17 | 0.0 | 0.0 | 0.00 | 0.00 | 0.00 | |||
| 20260510011856 | -17 | 0.0 | 0.0 | 0.00 | 0.00 | 0.00 | |||
| 20260510010400 | -17 | 0.0 | 0.0 | 0.00 | 0.00 | 0.00 | |||
| 20260510004856 | 12 | 100 | 4.8 | 0.0 | 0.00 | 0.00 | 0.00 | 100 | 1014.0 |
| 20260510003400 | 12 | 100 | 4.8 | 0.0 | 0.00 | 0.00 | 0.00 | 100 | 1014.0 |
| 20260510001857 | 12 | 100 | 4.8 | 0.0 | 0.00 | 0.00 | 0.00 | 100 | 1014.0 |
| 20260510000359 | 12 | 100 | 4.8 | 0.0 | 0.00 | 0.00 | 0.00 | 100 | 1014.0 |
| 20260509234857 | -17 | 0.0 | 0.0 | 0.00 | 0.00 | 0.00 | |||
| 20260509233414 | -17 | 0.0 | 0.0 | 0.00 | 0.00 | 0.00 | |||
| 20260509231856 | -17 | 0.0 | 0.0 | 0.00 | 0.00 | 0.00 | |||
| 20260509230359 | -17 | 0.0 | 0.0 | 0.00 | 0.00 | 0.00 | |||
| 20260509224854 | 13 | 120 | 11.3 | 0.0 | 0.00 | 0.00 | 0.00 | 94 | 1015.0 |
| 20260509223359 | 13 | 120 | 11.3 | 0.0 | 0.00 | 0.00 | 0.00 | 94 | 1015.0 |
| 20260509221850 | 13 | 120 | 11.3 | 0.0 | 0.00 | 0.00 | 0.00 | 94 | 1015.0 |
| 20260509220356 | -17 | 0.0 | 0.0 | 0.00 | 0.00 | 0.00 | |||
| 20260509214854 | 13 | 120 | 11.3 | 0.0 | 0.00 | 0.00 | 0.00 | 94 | 1015.0 |
| 20260509213359 | 13 | 120 | 11.3 | 0.0 | 0.00 | 0.00 | 0.00 | 94 | 1015.0 |
| 20260509211854 | -17 | 0.0 | 0.0 | 0.00 | 0.00 | 0.00 | |||
| 20260509210359 | -17 | 0.0 | 0.0 | 0.00 | 0.00 | 0.00 | |||
| 20260509204906 | 13 | 120 | 11.3 | 0.0 | 0.00 | 0.00 | 0.00 | 94 | 1015.0 |
| 20260509203400 | 13 | 120 | 11.3 | 0.0 | 0.00 | 0.00 | 0.00 | 94 | 1015.0 |
| 20260509201857 | 13 | 120 | 11.3 | 0.0 | 0.00 | 0.00 | 0.00 | 94 | 1015.0 |
| 20260509200359 | -17 | 0.0 | 0.0 | 0.00 | 0.00 | 0.00 | |||
| 20260509194857 | 13 | 110 | 11.3 | 0.0 | 0.00 | 0.00 | 0.00 | 94 | 1015.0 |
| 20260509193359 | 13 | 110 | 11.3 | 0.0 | 0.00 | 0.00 | 0.00 | 94 | 1015.0 |
| 20260509191856 | 13 | 110 | 11.3 | 0.0 | 0.00 | 0.00 | 0.00 | 94 | 1015.0 |
| 20260509190359 | 13 | 110 | 11.3 | 0.0 | 0.00 | 0.00 | 0.00 | 94 | 1015.0 |
| 20260509184900 | 15 | 110 | 14.5 | 0.0 | 0.00 | 0.00 | 0.00 | 88 | 1014.0 |
| 20260509183400 | 15 | 110 | 14.5 | 0.0 | 0.00 | 0.00 | 0.00 | 88 | 1014.0 |
| 20260509181900 | 15 | 110 | 14.5 | 0.0 | 0.00 | 0.00 | 0.00 | 88 | 1014.0 |
| 20260509180400 | 15 | 110 | 14.5 | 0.0 | 0.00 | 0.00 | 0.00 | 88 | 1014.0 |
| 20260509174900 | 16 | 110 | 17.7 | 0.0 | 0.00 | 0.00 | 0.00 | 83 | 1014.0 |
| 20260509173401 | 16 | 110 | 17.7 | 0.0 | 0.00 | 0.00 | 0.00 | 83 | 1014.0 |
| 20260509171857 | 16 | 110 | 17.7 | 0.0 | 0.00 | 0.00 | 0.00 | 83 | 1014.0 |
| 20260509170400 | 16 | 110 | 17.7 | 0.0 | 0.00 | 0.00 | 0.00 | 83 | 1014.0 |
| 20260509164853 | 17 | 110 | 22.5 | 0.0 | 0.00 | 0.00 | 0.00 | 73 | 1014.0 |
| 20260509163400 | 17 | 110 | 22.5 | 0.0 | 0.00 | 0.00 | 0.00 | 73 | 1014.0 |
| 20260509161856 | 17 | 110 | 22.5 | 0.0 | 0.00 | 0.00 | 0.00 | 73 | 1014.0 |
| 20260509160359 | 17 | 110 | 22.5 | 0.0 | 0.00 | 0.00 | 0.00 | 73 | 1014.0 |
| 20260509154900 | 17 | 110 | 22.5 | 0.0 | 0.00 | 0.00 | 0.00 | 73 | 1014.0 |
| 20260509153359 | 17 | 110 | 22.5 | 0.0 | 0.00 | 0.00 | 0.00 | 73 | 1014.0 |
| 20260509151900 | 17 | 110 | 22.5 | 0.0 | 0.00 | 0.00 | 0.00 | 73 | 1014.0 |
| 20260509150400 | 17 | 110 | 22.5 | 0.0 | 0.00 | 0.00 | 0.00 | 73 | 1014.0 |
| 20260509144900 | 17 | 120 | 22.5 | 0.0 | 0.00 | 0.00 | 0.00 | 73 | 1014.0 |
| 20260509143359 | 17 | 120 | 22.5 | 0.0 | 0.00 | 0.00 | 0.00 | 73 | 1014.0 |
| 20260509141856 | 17 | 120 | 22.5 | 0.0 | 0.00 | 0.00 | 0.00 | 73 | 1014.0 |
| 20260509140400 | 17 | 120 | 22.5 | 0.0 | 0.00 | 0.00 | 0.00 | 73 | 1014.0 |
| 20260509134900 | 17 | 120 | 22.5 | 0.0 | 0.00 | 0.00 | 0.00 | 77 | 1014.0 |
| 20260509133400 | 17 | 120 | 22.5 | 0.0 | 0.00 | 0.00 | 0.00 | 77 | 1014.0 |
| 20260509131857 | 17 | 120 | 22.5 | 0.0 | 0.00 | 0.00 | 0.00 | 77 | 1014.0 |
| 20260509130359 | -17 | 0.0 | 0.0 | 0.00 | 0.00 | 0.00 | |||
| 20260509124900 | 17 | 120 | 22.5 | 0.0 | 0.00 | 0.00 | 0.00 | 78 | 1014.0 |
| 20260509123400 | 17 | 120 | 22.5 | 0.0 | 0.00 | 0.00 | 0.00 | 78 | 1014.0 |
| 20260509121850 | 17 | 120 | 22.5 | 0.0 | 0.00 | 0.00 | 0.00 | 78 | 1014.0 |
| 20260509120359 | 17 | 120 | 22.5 | 0.0 | 0.00 | 0.00 | 0.00 | 78 | 1014.0 |
| 20260509114856 | 17 | 120 | 17.7 | 0.0 | 0.00 | 0.00 | 0.00 | 78 | 1014.0 |
| 20260509113359 | 17 | 120 | 17.7 | 0.0 | 0.00 | 0.00 | 0.00 | 78 | 1014.0 |
| 20260509111900 | 17 | 120 | 17.7 | 0.0 | 0.00 | 0.00 | 0.00 | 78 | 1014.0 |
| 20260509110359 | -17 | 0.0 | 0.0 | 0.00 | 0.00 | 0.00 | |||
| 20260509104856 | 17 | 120 | 17.7 | 0.0 | 0.00 | 0.00 | 0.00 | 73 | 1014.0 |
| 20260509103400 | 17 | 120 | 17.7 | 0.0 | 0.00 | 0.00 | 0.00 | 73 | 1014.0 |
| 20260509101857 | 17 | 120 | 17.7 | 0.0 | 0.00 | 0.00 | 0.00 | 73 | 1014.0 |
| 20260509100400 | 17 | 120 | 17.7 | 0.0 | 0.00 | 0.00 | 0.00 | 73 | 1014.0 |
| 20260509094856 | 17 | 130 | 17.7 | 0.0 | 0.00 | 0.00 | 0.00 | 73 | 1015.0 |
| 20260509093359 | 17 | 130 | 17.7 | 0.0 | 0.00 | 0.00 | 0.00 | 73 | 1015.0 |
| 20260509092033 | -17 | 0.0 | 0.0 | 0.00 | 0.00 | 0.00 | |||
| 20260509090400 | 17 | 130 | 17.7 | 0.0 | 0.00 | 0.00 | 0.00 | 73 | 1015.0 |